CZ-4C DEB, 43270

Orbit data source: Space-Track

CZ-4C DEB, 43270 is space debris in SSO originally from a launch on Sat, 31 Mar 2018 UTC launched from the Taiyaun Space Center, China (TSC). Debris objects in space refer to the collection of defunct objects orbiting the Earth. Examples of debris include non-operational satellites, rocket bodies, and fragments generated from explosions, collisions, or faulty payload assembly.

Loading next visibility...
Identifier
43270, 2018-031J
Orbit
SSO
Country
Flag of CNCN / PRC
Related business
Manufacturer
Unknown
Mission
Spacecraft
Bus & Motor
Unknown
Mass
Unknown
Launch date (UTC)
2018-03-31 (7 years ago)
Launch vehicle
Unknown
Launch site
Taiyaun Space Center, China (TSC)
Object type
Payload
Rocket body
Debris
Shape & HBR
Unknown
Radar Cross Section
Small (<0.1 m²)

Expand to show TLE details & history
Last TLE update: 1 week ago

TLE from 1 week ago
0 CZ-4C DEB
1 43270U 18031J   25253.97324327  .00000627  00000-0  89504-4 0  9998
2 43270  97.7619 313.7926 0006384 112.0253 248.1638 14.80024888411633
Epoch: 2025-09-10T23:21Z
TLE epoch observation values (Epoch: 2025-09-10T23:21:28.218Z)
Latitude
-0.00003°
Longitude
-26.81695°
Altitude
633.938 km
Speed
7.54 km/s
True Right ascension
20h 55m 10s
True Declination
0° 00' 00"
Sunlit
Object was in full shadow at epoch
Visualization orbit readout
Latitude
Unknown
Longitude
Unknown
Altitude
Unknown
Speed
Unknown
Apparent Right ascension
Unknown
Apparent Declination
Unknown
Sunlit
N/A
Visualization observer readout
Local Sidereal Time
01:46:32
Azimuth
Unknown
Elevation
Unknown
Doppler factor
Unknown
Orbital elements
Apogee altitude
630.752 km
Perigee altitude
621.809 km
Semi-major axis
7,004.417 km
Eccentricity
0.00064
Inclination
97.7619°
RAAN
313.7926°
Arg. of periapsis
112.0253°
True anomaly
248.09591°
Mean anomaly
248.1638°
Eccentric anomaly
248.12985°
Mean motion
3.70242 °/min
Orbital period
97.23 mins
BSTAR
0.000089504
Loading maneuver chart data...
Computing Atmospheric mass density...
Loading historical data...
Loading historical data...
Loading historical data...
Loading historical data...
Loading historical data...
Loading historical data...
Loading historical data...

Documentation

Showing up to 5 results
|